DateTime,Pond,Region,Area,Volume,DO,Temp,Salinity
2016-06-23 08:15,4,b,962,274,3.14,20.72,20.81
2016-06-23 08:30,4,b,962,274,3.71,20.68,20.70
2016-06-23 08:45,4,b,962,274,3.86,21.31,20.83
2016-06-23 09:00,4,b,962,274,4.75,21.61,20.85
2016-06-23 09:15,4,b,962,274,5.50,21.93,20.88
2016-06-23 09:30,4,b,962,274,7.62,22.33,20.90
2016-06-23 09:45,4,b,962,274,7.24,22.62,20.92
2016-06-23 10:00,4,b,962,274,7.01,22.85,20.94
2016-06-23 10:15,4,b,962,274,7.95,23.34,20.90
2016-06-23 10:30,4,b,962,274,10.09,23.84,20.94
2016-06-23 10:45,4,b,962,274,10.61,24.12,20.90
2016-06-23 11:00,4,b,962,274,10.38,24.50,20.92
2016-06-23 11:15,4,b,962,274,10.95,25.27,20.88
2016-06-23 11:30,4,b,962,274,10.45,25.63,20.88
2016-06-23 11:45,4,b,962,274,10.77,25.95,20.89
2016-06-23 12:00,4,b,962,274,11.05,26.35,20.89
2016-06-23 12:15,4,b,962,274,11.76,26.56,20.93
2016-06-23 12:30,4,b,962,274,12.23,26.88,20.89
2016-06-23 12:45,4,b,962,274,12.35,27.16,20.89
2016-06-23 13:00,4,b,962,274,12.78,27.17,20.91
2016-06-23 13:15,4,b,962,274,12.95,27.38,20.89
2016-06-23 13:30,4,b,962,274,13.48,27.66,20.89
2016-06-23 13:45,4,b,962,274,13.77,27.83,20.87
2016-06-23 14:00,4,b,962,274,13.64,27.93,20.87
2016-06-23 14:15,4,b,962,274,13.63,27.88,20.87
2016-06-23 14:30,4,b,962,274,13.74,28.10,20.85
2016-06-23 14:45,4,b,962,274,13.95,28.10,20.82
2016-06-23 15:00,4,b,962,274,13.82,28.31,20.80
2016-06-23 15:15,4,b,962,274,13.97,28.40,20.78
2016-06-23 15:30,4,b,962,274,14.04,28.47,20.76
2016-06-23 15:45,4,b,962,274,14.16,28.60,20.74
2016-06-23 16:00,4,b,962,274,14.15,28.60,20.71
2016-06-23 16:15,4,b,962,274,14.13,28.64,20.68
2016-06-23 16:30,4,b,962,274,14.27,28.62,20.67
2016-06-23 16:45,4,b,962,274,14.30,28.63,20.65
2016-06-23 17:00,4,b,962,274,14.45,28.63,20.63
2016-06-23 17:15,4,b,962,274,14.28,28.58,20.59
2016-06-23 17:30,4,b,962,274,14.55,28.50,20.56
2016-06-23 17:45,4,b,962,274,14.58,28.43,20.54
2016-06-23 18:00,4,b,962,274,14.70,28.37,20.51
2016-06-23 18:15,4,b,962,274,14.61,28.22,20.49
2016-06-23 18:30,4,b,962,274,14.48,27.92,20.49
2016-06-23 18:45,4,b,962,274,14.42,27.85,20.47
2016-06-23 19:00,4,b,962,274,14.33,27.64,20.46
2016-06-23 19:15,4,b,962,274,14.03,27.40,20.45
2016-06-23 19:30,4,b,962,274,13.73,27.15,20.44
2016-06-23 19:45,4,b,962,274,13.29,26.95,20.38
2016-06-23 20:00,4,b,962,274,12.93,26.78,20.38
2016-06-23 20:15,4,b,962,274,12.61,26.60,20.44
2016-06-23 20:30,4,b,962,274,12.33,26.43,20.40
2016-06-23 20:45,4,b,962,274,11.99,26.25,20.39
2016-06-23 21:00,4,b,962,274,11.71,26.04,20.39
2016-06-23 21:15,4,b,962,274,11.24,25.91,20.39
2016-06-23 21:30,4,b,962,274,11.05,25.71,20.40
2016-06-23 21:45,4,b,962,274,10.84,25.54,20.40
2016-06-23 22:00,4,b,962,274,10.63,25.35,20.41
2016-06-23 22:15,4,b,962,274,10.32,25.20,20.41
2016-06-23 22:30,4,b,962,274,9.99,25.05,20.42
2016-06-23 22:45,4,b,962,274,9.61,24.88,20.42
2016-06-23 23:00,4,b,962,274,9.44,24.68,20.43
2016-06-23 23:15,4,b,962,274,8.91,24.55,20.44
2016-06-23 23:30,4,b,962,274,8.84,24.37,20.45
2016-06-23 23:45,4,b,962,274,8.31,24.19,20.46
2016-06-24 00:00,4,b,962,274,8.14,24.02,20.45
2016-06-24 00:15,4,b,962,274,7.89,23.84,20.46
2016-06-24 00:30,4,b,962,274,7.70,23.67,20.48
2016-06-24 00:45,4,b,962,274,7.44,23.49,20.49
2016-06-24 01:00,4,b,962,274,7.28,23.32,20.51
2016-06-24 01:15,4,b,962,274,6.76,23.18,20.52
2016-06-24 01:30,4,b,962,274,6.40,23.06,20.53
2016-06-24 01:45,4,b,962,274,6.09,22.90,20.55
2016-06-24 02:00,4,b,962,274,5.70,22.75,20.57
2016-06-24 02:15,4,b,962,274,5.02,22.54,20.60
2016-06-24 02:30,4,b,962,274,4.65,22.44,20.61
2016-06-24 02:45,4,b,962,274,4.57,22.26,20.64
2016-06-24 03:00,4,b,962,274,4.75,21.95,20.68
2016-06-24 03:15,4,b,962,274,4.47,21.85,20.70
2016-06-24 03:30,4,b,962,274,3.79,21.80,20.70
2016-06-24 03:45,4,b,962,274,3.65,21.59,20.71
2016-06-24 04:00,4,b,962,274,3.32,21.47,20.72
2016-06-24 04:15,4,b,962,274,2.81,21.52,20.73
2016-06-24 04:30,4,b,962,274,2.16,21.48,20.75
2016-06-24 04:45,4,b,962,274,1.97,21.46,20.76
2016-06-24 05:00,4,b,962,274,1.81,21.43,20.78
2016-06-24 05:15,4,b,962,274,1.56,21.40,20.80
2016-06-24 05:30,4,b,962,274,1.31,21.40,20.81
2016-06-24 05:45,4,b,962,274,1.26,21.37,20.83
2016-06-24 06:00,4,b,962,274,1.22,21.36,20.84
2016-06-24 06:15,4,b,962,274,1.18,21.36,20.86
2016-06-24 06:30,4,b,962,274,1.15,21.40,20.87
2016-06-24 06:45,4,b,962,274,1.20,21.42,20.89
2016-06-24 07:00,4,b,962,274,1.54,21.36,20.89
2016-06-24 07:15,4,b,962,274,1.70,21.33,20.91
2016-06-24 07:30,4,b,962,274,2.03,21.37,20.91
2016-06-24 07:45,4,b,962,274,2.19,21.52,20.91
2016-06-24 08:00,4,b,962,274,2.80,21.60,20.89
2016-06-24 08:15,4,b,962,274,3.24,21.94,20.89
2016-06-24 08:30,4,b,962,274,4.19,21.97,20.86
2016-06-24 08:45,4,b,962,274,4.55,22.01,20.84
2016-06-24 09:00,4,b,962,274,5.11,22.12,20.83
2016-06-24 09:15,4,b,962,274,5.80,22.38,20.83
2016-06-24 09:30,4,b,962,274,6.89,22.70,20.84
2016-06-24 09:45,4,b,962,274,7.06,22.76,21.30
2016-06-24 10:00,4,b,962,274,7.94,23.15,21.28
2016-06-24 10:15,4,b,962,274,8.56,23.46,21.20
2016-06-24 10:30,4,b,962,274,10.18,23.90,21.23
2016-06-24 10:45,4,b,962,274,10.17,24.26,21.18
2016-06-24 11:00,4,b,962,274,10.46,24.52,21.15
2016-06-24 11:15,4,b,962,274,10.77,24.88,21.11
2016-06-24 11:30,4,b,962,274,11.54,25.26,21.15
2016-06-24 11:45,4,b,962,274,11.88,25.67,21.12
2016-06-24 12:00,4,b,962,274,12.45,26.06,21.10
2016-06-24 12:15,4,b,962,274,12.55,26.37,21.10
2016-06-24 12:30,4,b,962,274,13.30,26.82,21.06
2016-06-24 12:45,4,b,962,274,14.65,27.12,21.09
2016-06-24 13:00,4,b,962,274,15.50,27.44,21.09
2016-06-24 13:15,4,b,962,274,15.48,27.79,21.05
2016-06-24 13:30,4,b,962,274,15.62,28.06,21.03
2016-06-24 13:45,4,b,962,274,15.86,28.33,21.01
2016-06-24 14:00,4,b,962,274,16.24,28.51,21.00
2016-06-24 14:15,4,b,962,274,16.17,28.73,20.97
2016-06-24 14:30,4,b,962,274,16.32,28.89,20.96
2016-06-24 14:45,4,b,962,274,16.48,29.02,20.93
2016-06-24 15:00,4,b,962,274,16.38,29.06,20.92
2016-06-24 15:15,4,b,962,274,16.11,29.05,20.89
2016-06-24 15:30,4,b,962,274,16.06,29.04,20.89
2016-06-24 15:45,4,b,962,274,16.07,29.02,20.89
2016-06-24 16:00,4,b,962,274,16.39,28.87,20.91
2016-06-24 16:15,4,b,962,274,15.52,28.75,20.87
2016-06-24 16:30,4,b,962,274,15.31,28.63,20.87
2016-06-24 16:45,4,b,962,274,15.28,28.51,20.86
2016-06-24 17:00,4,b,962,274,15.28,28.46,20.86
2016-06-24 17:15,4,b,962,274,15.13,28.25,20.88
2016-06-24 17:30,4,b,962,274,15.40,28.09,20.91
2016-06-24 17:45,4,b,962,274,15.18,27.84,20.91
2016-06-24 18:00,4,b,962,274,14.63,27.61,20.94
2016-06-24 18:15,4,b,962,274,14.78,27.37,20.95
2016-06-24 18:30,4,b,962,274,14.30,27.07,20.93
2016-06-24 18:45,4,b,962,274,14.07,26.76,20.97
2016-06-24 19:00,4,b,962,274,14.02,26.52,20.98
2016-06-24 19:15,4,b,962,274,13.74,26.25,20.99
2016-06-24 19:30,4,b,962,274,13.42,25.96,21.02
2016-06-24 19:45,4,b,962,274,13.72,25.76,21.04
2016-06-24 20:00,4,b,962,274,13.26,25.53,21.05
2016-06-24 20:15,4,b,962,274,13.19,25.29,21.08
2016-06-24 20:30,4,b,962,274,13.02,25.10,21.08
2016-06-24 20:45,4,b,962,274,12.59,24.89,21.10
2016-06-24 21:00,4,b,962,274,12.35,24.75,21.10
2016-06-24 21:15,4,b,962,274,12.20,24.59,21.12
2016-06-24 21:30,4,b,962,274,11.29,24.43,21.12
2016-06-24 21:45,4,b,962,274,11.23,24.23,21.15
2016-06-24 22:00,4,b,962,274,10.84,24.07,21.15
2016-06-24 22:15,4,b,962,274,10.45,23.96,21.16
2016-06-24 22:30,4,b,962,274,10.01,23.82,21.17
2016-06-24 22:45,4,b,962,274,9.46,23.67,21.18
2016-06-24 23:00,4,b,962,274,9.09,23.54,21.19
2016-06-24 23:15,4,b,962,274,8.96,23.38,21.20
2016-06-24 23:30,4,b,962,274,8.96,23.25,21.23
2016-06-24 23:45,4,b,962,274,8.36,23.11,21.24
2016-06-25 00:00,4,b,962,274,8.36,22.98,21.25
2016-06-25 00:15,4,b,962,274,7.67,22.87,21.27
2016-06-25 00:30,4,b,962,274,7.23,22.74,21.28
2016-06-25 00:45,4,b,962,274,6.83,22.60,21.30
2016-06-25 01:00,4,b,962,274,6.97,22.45,21.32
2016-06-25 01:15,4,b,962,274,6.68,22.32,21.34
2016-06-25 01:30,4,b,962,274,6.10,22.18,21.37
2016-06-25 01:45,4,b,962,274,6.23,22.04,21.38
2016-06-25 02:00,4,b,962,274,5.73,21.91,21.40
2016-06-25 02:15,4,b,962,274,5.48,21.79,21.41
2016-06-25 02:30,4,b,962,274,5.23,21.67,21.43
2016-06-25 02:45,4,b,962,274,4.97,21.54,21.45
2016-06-25 03:00,4,b,962,274,4.83,21.40,21.47
2016-06-25 03:15,4,b,962,274,4.49,21.25,21.49
2016-06-25 03:30,4,b,962,274,4.09,21.12,21.51
2016-06-25 03:45,4,b,962,274,4.20,20.96,21.54
2016-06-25 04:00,4,b,962,274,3.53,20.89,21.56
2016-06-25 04:15,4,b,962,274,3.36,20.79,21.58
2016-06-25 04:30,4,b,962,274,2.76,20.71,21.60
2016-06-25 04:45,4,b,962,274,2.71,20.57,21.62
2016-06-25 05:00,4,b,962,274,2.35,20.46,21.64
2016-06-25 05:15,4,b,962,274,2.41,20.32,21.67
2016-06-25 05:30,4,b,962,274,2.15,20.21,21.69
2016-06-25 05:45,4,b,962,274,1.90,20.13,21.72
2016-06-25 06:00,4,b,962,274,1.92,20.05,21.75
2016-06-25 06:15,4,b,962,274,2.03,19.96,21.77
2016-06-25 06:30,4,b,962,274,1.95,19.96,21.80
2016-06-25 06:45,4,b,962,274,1.79,20.03,21.81
2016-06-25 07:00,4,b,962,274,1.83,20.10,21.82
2016-06-25 07:15,4,b,962,274,2.03,20.18,21.84
2016-06-25 07:30,4,b,962,274,2.29,20.27,21.85
2016-06-25 07:45,4,b,962,274,2.50,20.42,21.86
2016-06-25 08:00,4,b,962,274,2.69,20.69,21.87
2016-06-25 08:15,4,b,962,274,3.16,20.91,21.88
2016-06-25 08:30,4,b,962,274,3.61,21.23,21.86
2016-06-25 08:45,4,b,962,274,3.97,21.48,21.88
2016-06-25 09:00,4,b,962,274,4.32,21.89,21.87
2016-06-25 09:15,4,b,962,274,4.91,22.17,21.87
2016-06-25 09:30,4,b,962,274,5.56,22.49,21.87
2016-06-25 09:45,4,b,962,274,6.18,22.88,21.86
2016-06-25 10:00,4,b,962,274,6.74,23.33,21.85
2016-06-25 10:15,4,b,962,274,7.25,23.73,21.84
2016-06-25 10:30,4,b,962,274,7.73,24.15,21.84
2016-06-25 10:45,4,b,962,274,8.20,24.55,21.82
2016-06-25 11:00,4,b,962,274,9.06,24.97,21.84
2016-06-25 11:15,4,b,962,274,9.42,25.34,21.81
2016-06-25 11:30,4,b,962,274,9.93,25.67,21.80
2016-06-25 11:45,4,b,962,274,10.32,26.02,21.81
2016-06-25 12:00,4,b,962,274,10.70,26.35,21.80
2016-06-25 12:15,4,b,962,274,11.07,26.66,21.79
2016-06-25 12:30,4,b,962,274,11.36,26.93,21.77
2016-06-25 12:45,4,b,962,274,11.77,27.26,21.74
2016-06-25 13:00,4,b,962,274,11.96,27.48,21.76
2016-06-25 13:15,4,b,962,274,12.69,27.73,21.76
2016-06-25 13:30,4,b,962,274,12.85,28.00,21.74
2016-06-25 13:45,4,b,962,274,12.95,28.25,21.72
2016-06-25 14:00,4,b,962,274,13.36,28.43,21.72
2016-06-25 14:15,4,b,962,274,13.26,28.63,21.71
2016-06-25 14:30,4,b,962,274,13.74,28.77,21.72
2016-06-25 14:45,4,b,962,274,13.64,28.93,21.69
2016-06-25 15:00,4,b,962,274,13.94,28.93,21.70
2016-06-25 15:15,4,b,962,274,13.79,29.05,21.70
2016-06-25 15:30,4,b,962,274,14.12,29.07,21.70
2016-06-25 15:45,4,b,962,274,13.86,29.05,21.71
2016-06-25 16:00,4,b,962,274,14.42,29.07,21.71
2016-06-25 16:15,4,b,962,274,14.74,28.99,21.71
2016-06-25 16:30,4,b,962,274,14.32,28.87,21.72
2016-06-25 16:45,4,b,962,274,14.39,28.75,21.73
2016-06-25 17:00,4,b,962,274,14.31,28.72,21.72
2016-06-25 17:15,4,b,962,274,14.58,28.65,21.74
2016-06-25 17:30,4,b,962,274,13.95,28.51,21.75
2016-06-25 17:45,4,b,962,274,14.36,28.37,21.74
2016-06-25 18:00,4,b,962,274,14.44,28.16,21.75
2016-06-25 18:15,4,b,962,274,14.45,27.98,21.74
2016-06-25 18:30,4,b,962,274,14.59,27.71,21.78
2016-06-25 18:45,4,b,962,274,14.21,27.42,21.78
2016-06-25 19:00,4,b,962,274,13.78,27.03,21.80
2016-06-25 19:15,4,b,962,274,13.43,26.71,21.81
2016-06-25 19:30,4,b,962,274,13.74,26.45,21.82
2016-06-25 19:45,4,b,962,274,13.43,26.14,21.83
2016-06-25 20:00,4,b,962,274,13.18,25.90,21.84
2016-06-25 20:15,4,b,962,274,12.89,25.70,21.85
2016-06-25 20:30,4,b,962,274,12.54,25.43,21.87
2016-06-25 20:45,4,b,962,274,12.38,25.25,21.87
2016-06-25 21:00,4,b,962,274,11.99,25.06,21.88
2016-06-25 21:15,4,b,962,274,11.69,24.88,21.89
2016-06-25 21:30,4,b,962,274,11.42,24.69,21.91
2016-06-25 21:45,4,b,962,274,10.94,24.55,21.91
2016-06-25 22:00,4,b,962,274,10.46,24.36,21.93
2016-06-25 22:15,4,b,962,274,9.78,24.19,21.94
2016-06-25 22:30,4,b,962,274,10.13,24.03,21.95
2016-06-25 22:45,4,b,962,274,9.38,23.87,21.97
2016-06-25 23:00,4,b,962,274,9.13,23.76,21.97
2016-06-25 23:15,4,b,962,274,8.82,23.62,21.99
2016-06-25 23:30,4,b,962,274,8.71,23.50,22.00
2016-06-25 23:45,4,b,962,274,7.87,23.38,22.01
2016-06-26 00:00,4,b,962,274,7.48,23.25,22.02
2016-06-26 00:15,4,b,962,274,7.58,23.08,22.04
2016-06-26 00:30,4,b,962,274,7.44,22.95,22.06
2016-06-26 00:45,4,b,962,274,7.07,22.80,22.07
2016-06-26 01:00,4,b,962,274,7.05,22.67,22.08
2016-06-26 01:15,4,b,962,274,6.54,22.53,22.14
2016-06-26 01:30,4,b,962,274,6.22,22.38,22.14
2016-06-26 01:45,4,b,962,274,6.38,22.22,22.19
2016-06-26 02:00,4,b,962,274,5.75,22.11,22.23
2016-06-26 02:15,4,b,962,274,5.80,21.94,22.25
2016-06-26 02:30,4,b,962,274,4.86,21.85,22.25
2016-06-26 02:45,4,b,962,274,4.73,21.68,22.26
2016-06-26 03:00,4,b,962,274,4.97,21.53,22.28
2016-06-26 03:15,4,b,962,274,4.42,21.42,22.30
2016-06-26 03:30,4,b,962,274,4.20,21.28,22.32
2016-06-26 03:45,4,b,962,274,4.23,21.11,22.36
2016-06-26 04:00,4,b,962,274,4.05,20.96,22.37
2016-06-26 04:15,4,b,962,274,3.74,20.86,22.40
2016-06-26 04:30,4,b,962,274,3.13,20.82,22.38
2016-06-26 04:45,4,b,962,274,3.04,20.71,22.42
2016-06-26 05:00,4,b,962,274,2.89,20.57,22.43
2016-06-26 05:15,4,b,962,274,2.69,20.45,22.46
2016-06-26 05:30,4,b,962,274,2.56,20.33,22.47
2016-06-26 05:45,4,b,962,274,2.35,20.27,22.50
2016-06-26 06:00,4,b,962,274,2.29,20.23,22.50
2016-06-26 06:15,4,b,962,274,2.17,20.17,22.52
2016-06-26 06:30,4,b,962,274,2.05,20.15,22.53
2016-06-26 06:45,4,b,962,274,2.04,20.21,22.53
2016-06-26 07:00,4,b,962,274,2.28,20.28,22.56
2016-06-26 07:15,4,b,962,274,2.51,20.35,22.56
2016-06-26 07:30,4,b,962,274,2.69,20.44,22.57
2016-06-26 07:45,4,b,962,274,2.72,20.61,22.57
2016-06-26 08:00,4,b,962,274,2.93,20.87,22.58
2016-06-26 08:15,4,b,962,274,3.42,21.03,22.60
2016-06-26 08:30,4,b,962,274,3.87,21.33,22.59
2016-06-26 08:45,4,b,962,274,4.20,21.67,22.58
2016-06-26 09:00,4,b,962,274,4.63,22.02,22.58
2016-06-26 09:15,4,b,962,274,5.34,22.33,22.57
2016-06-26 09:30,4,b,962,274,5.96,22.60,22.58
2016-06-26 09:45,4,b,962,274,6.19,22.94,22.57
2016-06-26 10:00,4,b,962,274,6.55,23.39,22.54
2016-06-26 10:15,4,b,962,274,7.64,23.76,22.54
2016-06-26 10:30,4,b,962,274,8.12,24.12,22.56
2016-06-26 10:45,4,b,962,274,8.77,24.56,22.53
2016-06-26 11:00,4,b,962,274,8.91,25.09,22.50
2016-06-26 11:15,4,b,962,274,8.97,25.48,22.50
2016-06-26 11:30,4,b,962,274,9.22,25.93,22.50
2016-06-26 11:45,4,b,962,274,10.15,26.48,22.49
2016-06-26 12:00,4,b,962,274,10.21,26.91,22.45
2016-06-26 12:15,4,b,962,274,10.96,27.38,22.40
2016-06-26 12:30,4,b,962,274,12.30,27.46,22.44
2016-06-26 12:45,4,b,962,274,12.18,27.79,22.41
2016-06-26 13:00,4,b,962,274,12.38,27.99,22.41
2016-06-26 13:15,4,b,962,274,12.71,28.25,22.38
2016-06-26 13:30,4,b,962,274,13.12,28.43,22.39
2016-06-26 13:45,4,b,962,274,13.00,28.69,22.39
2016-06-26 14:00,4,b,962,274,13.48,28.89,22.38
2016-06-26 14:15,4,b,962,274,13.60,29.13,22.38
2016-06-26 14:30,4,b,962,274,13.84,29.42,22.36
2016-06-26 14:45,4,b,962,274,13.93,29.57,22.37
2016-06-26 15:00,4,b,962,274,14.15,29.69,22.36
2016-06-26 15:15,4,b,962,274,14.04,29.70,22.37
2016-06-26 15:30,4,b,962,274,14.25,29.72,22.38
2016-06-26 15:45,4,b,962,274,13.97,29.73,22.38
2016-06-26 16:00,4,b,962,274,13.96,29.67,22.39
2016-06-26 16:15,4,b,962,274,13.67,29.62,22.38
2016-06-26 16:30,4,b,962,274,13.42,29.55,22.41
2016-06-26 16:45,4,b,962,274,13.70,29.46,22.41
2016-06-26 17:00,4,b,962,274,13.55,29.35,22.42
2016-06-26 17:15,4,b,962,274,13.44,29.24,22.42
2016-06-26 17:30,4,b,962,274,13.27,29.10,22.43
2016-06-26 17:45,4,b,962,274,13.11,28.93,22.45
2016-06-26 18:00,4,b,962,274,13.07,28.83,22.45
2016-06-26 18:15,4,b,962,274,13.05,28.70,22.48
2016-06-26 18:30,4,b,962,274,12.89,28.50,22.49
2016-06-26 18:45,4,b,962,274,12.45,28.37,22.50
2016-06-26 19:00,4,b,962,274,12.35,28.19,22.51
2016-06-26 19:15,4,b,962,274,12.11,27.94,22.53
2016-06-26 19:30,4,b,962,274,12.14,27.74,22.54
2016-06-26 19:45,4,b,962,274,12.10,27.47,22.57
2016-06-26 20:00,4,b,962,274,11.76,27.32,22.56
2016-06-26 20:15,4,b,962,274,11.58,27.11,22.57
2016-06-26 20:30,4,b,962,274,11.27,26.90,22.58
2016-06-26 20:45,4,b,962,274,11.23,26.78,22.60
2016-06-26 21:00,4,b,962,274,10.56,26.64,22.60
2016-06-26 21:15,4,b,962,274,10.59,26.44,22.62
2016-06-26 21:30,4,b,962,274,9.91,26.28,22.62
2016-06-26 21:45,4,b,962,274,9.53,26.13,22.63
2016-06-26 22:00,4,b,962,274,9.23,25.96,22.47
2016-06-26 22:15,4,b,962,274,9.05,25.76,22.65
2016-06-26 22:30,4,b,962,274,8.61,25.61,22.71
2016-06-26 22:45,4,b,962,274,8.48,25.38,22.71
2016-06-26 23:00,4,b,962,274,7.93,25.25,22.71
2016-06-26 23:15,4,b,962,274,7.56,25.08,22.73
2016-06-26 23:30,4,b,962,274,6.99,24.90,22.74
2016-06-26 23:45,4,b,962,274,6.24,24.71,22.76
2016-06-27 00:00,4,b,962,274,5.80,24.53,22.78
2016-06-27 00:15,4,b,962,274,5.86,24.38,22.80
2016-06-27 00:30,4,b,962,274,5.70,24.22,22.81
2016-06-27 00:45,4,b,962,274,4.57,24.04,22.83
2016-06-27 01:00,4,b,962,274,5.02,23.87,22.84
2016-06-27 01:15,4,b,962,274,4.75,23.67,22.86
2016-06-27 01:30,4,b,962,274,4.64,23.45,22.88
2016-06-27 01:45,4,b,962,274,4.24,23.22,22.90
2016-06-27 02:00,4,b,962,274,4.08,22.97,22.94
2016-06-27 02:15,4,b,962,274,3.64,22.82,22.95
2016-06-27 02:30,4,b,962,274,3.32,22.59,22.98
2016-06-27 02:45,4,b,962,274,2.91,22.42,23.00
2016-06-27 03:00,4,b,962,274,2.74,22.16,23.03
2016-06-27 03:15,4,b,962,274,2.53,21.99,23.06
2016-06-27 03:30,4,b,962,274,2.04,21.88,23.07
2016-06-27 03:45,4,b,962,274,1.99,21.70,23.08
2016-06-27 04:00,4,b,962,274,1.70,21.62,23.10
2016-06-27 04:15,4,b,962,274,1.59,21.49,23.12
2016-06-27 04:30,4,b,962,274,1.52,21.26,23.16
2016-06-27 04:45,4,b,962,274,1.62,21.02,23.23
2016-06-27 05:00,4,b,962,274,1.26,20.96,23.22
2016-06-27 05:15,4,b,962,274,1.23,20.81,23.25
2016-06-27 05:30,4,b,962,274,1.04,20.74,23.25
2016-06-27 05:45,4,b,962,274,0.97,20.66,23.27
2016-06-27 06:00,4,b,962,274,0.92,20.56,23.29
2016-06-27 06:15,4,b,962,274,1.00,20.49,23.32
2016-06-27 06:30,4,b,962,274,1.13,20.45,23.32
2016-06-27 06:45,4,b,962,274,1.40,20.43,23.33
2016-06-27 07:00,4,b,962,274,1.65,20.45,23.35
2016-06-27 07:15,4,b,962,274,2.06,20.49,23.36
2016-06-27 07:30,4,b,962,274,2.44,20.61,23.39
2016-06-27 07:45,4,b,962,274,2.90,20.76,23.38
2016-06-27 08:00,4,b,962,274,3.43,20.95,23.38
2016-06-27 08:15,4,b,962,274,4.00,21.15,23.39
2016-06-27 08:30,4,b,962,274,4.48,21.40,23.40
2016-06-27 08:45,4,b,962,274,5.00,21.64,23.40
2016-06-27 09:00,4,b,962,274,5.59,21.99,23.37
2016-06-27 09:15,4,b,962,274,6.23,22.35,23.35
2016-06-27 09:30,4,b,962,274,6.59,22.71,23.35
2016-06-27 09:45,4,b,962,274,7.23,23.03,23.35
2016-06-27 10:00,4,b,962,274,7.43,23.51,23.34
2016-06-27 10:15,4,b,962,274,8.07,23.84,23.33
2016-06-27 10:30,4,b,962,274,8.68,24.30,23.30
2016-06-27 10:45,4,b,962,274,9.60,24.58,23.30
2016-06-27 11:00,4,b,962,274,9.67,25.04,23.29
2016-06-27 11:15,4,b,962,274,10.05,25.46,23.29
2016-06-27 11:30,4,b,962,274,10.63,25.93,23.25
2016-06-27 11:45,4,b,962,274,10.96,26.24,23.25
2016-06-27 12:00,4,b,962,274,11.48,26.49,23.26
2016-06-27 12:15,4,b,962,274,11.57,26.88,23.24
2016-06-27 12:30,4,b,962,274,12.31,27.12,23.23
2016-06-27 12:45,4,b,962,274,12.27,27.44,23.24
2016-06-27 13:00,4,b,962,274,12.14,27.84,23.20
2016-06-27 13:15,4,b,962,274,12.69,28.08,23.21
2016-06-27 13:30,4,b,962,274,13.04,28.36,23.17
2016-06-27 13:45,4,b,962,274,13.10,28.46,23.18
2016-06-27 14:00,4,b,962,274,13.60,28.57,23.18
2016-06-27 14:15,4,b,962,274,13.69,28.92,23.14
2016-06-27 14:30,4,b,962,274,13.43,29.01,23.17
2016-06-27 14:45,4,b,962,274,13.39,29.19,23.15
2016-06-27 15:00,4,b,962,274,13.01,29.32,23.18
2016-06-27 15:15,4,b,962,274,13.06,29.55,23.15
2016-06-27 15:30,4,b,962,274,13.26,29.28,23.18
2016-06-27 15:45,4,b,962,274,12.78,29.08,23.20
2016-06-27 16:00,4,b,962,274,12.68,29.04,23.21
2016-06-27 16:15,4,b,962,274,12.62,28.98,23.22
2016-06-27 16:30,4,b,962,274,12.79,29.00,23.24
2016-06-27 16:45,4,b,962,274,12.61,28.94,23.26
2016-06-27 17:00,4,b,962,274,12.44,28.83,23.27
2016-06-27 17:15,4,b,962,274,12.49,28.70,23.28
2016-06-27 17:30,4,b,962,274,12.55,28.55,23.31
2016-06-27 17:45,4,b,962,274,12.42,28.37,23.33
2016-06-27 18:00,4,b,962,274,12.05,28.03,23.36
2016-06-27 18:15,4,b,962,274,11.51,27.74,23.39
2016-06-27 18:30,4,b,962,274,11.43,27.47,23.40
2016-06-27 18:45,4,b,962,274,10.91,27.29,23.41
2016-06-27 19:00,4,b,962,274,10.93,27.01,23.44
2016-06-27 19:15,4,b,962,274,10.44,26.79,23.45
2016-06-27 19:30,4,b,962,274,10.28,26.52,23.47
2016-06-27 19:45,4,b,962,274,9.90,26.32,23.49
2016-06-27 20:00,4,b,962,274,9.67,26.08,23.51
2016-06-27 20:15,4,b,962,274,9.31,25.86,23.52
2016-06-27 20:30,4,b,962,274,8.92,25.66,23.54
2016-06-27 20:45,4,b,962,274,8.39,25.46,23.55
2016-06-27 21:00,4,b,962,274,8.05,25.27,23.59
2016-06-27 21:15,4,b,962,274,7.59,25.12,23.60
2016-06-27 21:30,4,b,962,274,7.39,24.92,23.61
2016-06-27 21:45,4,b,962,274,7.02,24.71,23.64
2016-06-27 22:00,4,b,962,274,6.61,24.53,23.65
2016-06-27 22:15,4,b,962,274,6.23,24.33,23.68
2016-06-27 22:30,4,b,962,274,6.01,24.09,23.70
2016-06-27 22:45,4,b,962,274,5.53,23.94,23.71
2016-06-27 23:00,4,b,962,274,5.21,23.77,23.74
2016-06-27 23:15,4,b,962,274,4.99,23.58,23.76
2016-06-27 23:30,4,b,962,274,4.74,23.41,23.79
2016-06-27 23:45,4,b,962,274,4.38,23.31,23.79
2016-06-28 00:00,4,b,962,274,4.19,23.17,23.81
2016-06-28 00:15,4,b,962,274,3.86,23.07,23.82
2016-06-28 00:30,4,b,962,274,3.55,23.00,23.84
2016-06-28 00:45,4,b,962,274,3.19,22.91,23.85
2016-06-28 01:00,4,b,962,274,3.17,22.78,23.87
2016-06-28 01:15,4,b,962,274,2.99,22.68,23.89
2016-06-28 01:30,4,b,962,274,2.82,22.58,23.91
2016-06-28 01:45,4,b,962,274,2.62,22.50,23.94
2016-06-28 02:00,4,b,962,274,2.30,22.45,23.96
2016-06-28 02:15,4,b,962,274,2.21,22.38,23.97
2016-06-28 02:30,4,b,962,274,2.18,22.26,24.01
2016-06-28 02:45,4,b,962,274,2.05,22.19,24.01
2016-06-28 03:00,4,b,962,274,1.87,22.14,24.02
2016-06-28 03:15,4,b,962,274,1.54,22.12,24.05
2016-06-28 03:30,4,b,962,274,1.29,22.08,24.05
2016-06-28 03:45,4,b,962,274,1.17,22.06,24.08
2016-06-28 04:00,4,b,962,274,1.11,21.98,24.10
2016-06-28 04:15,4,b,962,274,1.08,21.87,24.12
2016-06-28 04:30,4,b,962,274,1.04,21.81,24.13
2016-06-28 04:45,4,b,962,274,1.00,21.72,24.16
2016-06-28 05:00,4,b,962,274,0.88,21.68,24.16
2016-06-28 05:15,4,b,962,274,0.82,21.62,24.19
2016-06-28 05:30,4,b,962,274,0.73,21.59,24.23
2016-06-28 05:45,4,b,962,274,0.63,21.55,24.23
2016-06-28 06:00,4,b,962,274,0.54,21.53,24.25
2016-06-28 06:15,4,b,962,274,0.49,21.51,24.29
2016-06-28 06:30,4,b,962,274,0.49,21.50,24.30
2016-06-28 06:45,4,b,962,274,0.43,21.50,24.31
2016-06-28 07:00,4,b,962,274,0.36,21.51,24.31
2016-06-28 07:15,4,b,962,274,0.39,21.51,24.34
2016-06-28 07:30,4,b,962,274,0.30,21.57,24.34
2016-06-28 07:45,4,b,962,274,0.00,21.72,24.36
2016-06-28 08:00,4,b,962,274,0.00,21.77,24.37
2016-06-28 08:15,4,b,962,274,0.18,21.78,24.39
2016-06-28 08:30,4,b,962,274,0.49,21.78,24.41
2016-06-28 08:45,4,b,962,274,0.68,21.79,24.42
2016-06-28 09:00,4,b,962,274,0.97,21.87,24.43
2016-06-28 09:15,4,b,962,274,1.30,21.89,24.46
2016-06-28 09:30,4,b,962,274,1.57,21.90,24.48
2016-06-28 09:45,4,b,962,274,1.81,21.92,24.47
2016-06-28 10:00,4,b,962,274,2.13,21.98,24.50
2016-06-28 10:15,4,b,962,274,2.63,22.13,24.47
2016-06-28 10:30,4,b,962,274,3.27,22.34,24.47
2016-06-28 10:45,4,b,962,274,3.81,22.62,24.44
2016-06-28 11:00,4,b,962,274,4.46,22.81,24.51
2016-06-28 11:15,4,b,962,274,4.90,22.92,24.47
2016-06-28 11:30,4,b,962,274,5.27,23.01,24.45
2016-06-28 11:45,4,b,962,274,5.52,23.24,24.41
2016-06-28 12:00,4,b,962,274,6.08,23.40,24.38
2016-06-28 12:15,4,b,962,274,6.62,23.56,24.37
2016-06-28 12:30,4,b,962,274,6.97,23.61,24.37
2016-06-28 12:45,4,b,962,274,7.18,23.70,24.35
2016-06-28 13:00,4,b,962,274,7.60,23.95,24.34
2016-06-28 13:15,4,b,962,274,8.08,24.20,24.32
2016-06-28 13:30,4,b,962,274,8.51,24.39,24.30
2016-06-28 13:45,4,b,962,274,8.87,24.37,24.29
2016-06-28 14:00,4,b,962,274,8.90,24.32,24.28
2016-06-28 14:15,4,b,962,274,8.85,24.34,24.27